ANIK F3

Last updated on Tue Sep 16 2025 00:02:46 GMT+0000 (Coordinated Universal Time)

1 31102U 07009A 25258.56100251 -.00000018 00000+0 00000+0 0 9993 2 31102 0.4823 87.2396 0002703 94.6696 256.1153 1.00272500 43808
UTC large
Height (km)
Speed (km/s)
/
Latitude / Longitude
Inclination (degrees)
Orbital Period (minutes)
Azimuth
Elevation
Range (km)
Doppler Factor

Next 0 passes for location: London (51.5072 / 0.1276)

Sorry there are no passes over London.